Change the Weather History Date:

Sunday, December 30, 2012

  Actual Average Record
Temperature  
Mean Temperature 16 °F 19 °F  
Max Temperature 35 °F 28 °F 60 °F (1965)
Min Temperature -3 °F 10 °F -19 °F (1976)
Degree Days  
Heating Degree Days 49 46  
Month to date heating degree days 1138 1281  
Since 1 July heating degree days 2626 2764  
Cooling Degree Days 0 0  
Month to date cooling degree days 0 0  
Year to date cooling degree days 1083 799  
Moisture  
Dew Point 7 °F    
Average Humidity 80    
Maximum Humidity 95    
Minimum Humidity 64    
Precipitation  
Precipitation 0.00 in 0.03 in 0.53 in (1936)
Month to date precipitation 1.74 1.17  
Year to date precipitation 24.07 34.57  
Snow  
Snow 0.00 in 0.30 in 3.60 in (1971)
Month to date snowfall 11.3 9.6  
Since 1 July snowfall 11.3 13.0  
Snow Depth 6.00 in    
Sea Level Pressure  
Sea Level Pressure 30.19 in    
Wind  
Wind Speed 7 mph (South)    
Max Wind Speed 18 mph    
Max Gust Speed 24 mph    
Visibility 7 miles    
Events      
T = Trace of Precipitation, MM = Missing Value Source: NWS Daily Summary

Daily Weather History Graph

Daily Weather History Graph

Search for Another Location

Airport or City:

Trip Planner

Search our weather history database for the weather conditions in past years. The results will help you decide how hot, cold, wet, or windy it might be!

Date:

Astronomy

Dec. 30, 2012 Rise Set
Actual Time 7:39 AM CST 4:45 PM CST
Civil Twilight 7:07 AM CST 5:17 PM CST
Nautical Twilight 6:31 AM CST 5:53 PM CST
Astronomical Twilight 5:57 AM CST 6:27 PM CST
Moon 7:20 PM CST (12/30) 8:45 AM CST (12/30)
Length of Visible Light 10h 10m
Length of Day
9h 06m
Waning Gibbous, 95% of the Moon is Illuminated
Dec 30
Waning Gibbous
Jan 4
Last Quarter
Jan 11
New
Jan 18
First Quarter
Jan 26
Full

Hourly Weather History & Observations

Time (CST) Temp. Windchill Dew Point Humidity Pressure Visibility Wind Dir Wind Speed Gust Speed Precip Events Conditions
12:54 AM -0.9 °F - -5.1 °F 83% 30.28 in 5.0 mi Calm Calm - N/A   Clear
1:54 AM -0.0 °F - -2.9 °F 88% 30.29 in 4.0 mi Calm Calm - N/A   Clear
2:54 AM 1.0 °F -8.7 °F -2.0 °F 87% 30.31 in 7.0 mi West 4.6 mph - N/A   Clear
3:13 AM -0.4 °F -8.3 °F -2.2 °F 92% 30.25 in 7.0 mi West 3.5 mph - N/A   Scattered Clouds
3:23 AM 1.4 °F -6.2 °F -2.2 °F 85% 30.25 in 7.0 mi West 3.5 mph - N/A   Mostly Cloudy
3:32 AM 1.4 °F -8.3 °F -2.2 °F 85% 30.25 in 8.0 mi West 4.6 mph - N/A   Scattered Clouds
3:54 AM -0.9 °F - -4.0 °F 87% 30.31 in 8.0 mi Calm Calm - N/A   Clear
4:54 AM -2.0 °F - -4.0 °F 91% 30.30 in 8.0 mi Calm Calm - N/A   Clear
5:43 AM -2.2 °F - -5.8 °F 85% 30.24 in 8.0 mi Calm Calm - N/A   Scattered Clouds
5:52 AM -0.4 °F - -5.8 °F 78% 30.24 in 6.0 mi Calm Calm - N/A   Mostly Cloudy
5:54 AM -0.4 °F -8.3 °F -5.8 °F 78% 30.23 in 6.0 mi ENE 3.5 mph - N/A   Mostly Cloudy
6:44 AM -0.4 °F - -5.8 °F 78% 30.26 in 8.0 mi Calm Calm - N/A   Scattered Clouds
6:54 AM -2.9 °F - -7.1 °F 82% 30.32 in 8.0 mi Calm Calm - N/A   Clear
7:54 AM -0.0 °F - -4.0 °F 83% 30.31 in 5.0 mi Calm Calm - N/A   Clear
8:07 AM -0.4 °F - -5.8 °F 78% 30.24 in 1.8 mi Calm Calm - N/A   Haze
8:13 AM -0.4 °F - -4.0 °F 85% 30.24 in 3.0 mi Calm Calm - N/A   Clear
8:54 AM 1.9 °F - -0.9 °F 88% 30.32 in 6.0 mi Calm Calm - N/A   Clear
9:54 AM 8.1 °F 1.4 °F 5.0 °F 87% 30.32 in 5.0 mi SE 3.5 mph - N/A   Clear
10:54 AM 12.9 °F 5.2 °F 8.1 °F 81% 30.30 in 5.0 mi SSE 4.6 mph - N/A   Haze
11:54 AM 18.0 °F 11.1 °F 12.0 °F 78% 30.25 in 6.0 mi SE 4.6 mph - N/A   Haze
12:54 PM 19.0 °F 10.0 °F 12.9 °F 77% 30.20 in 6.0 mi SE 6.9 mph - N/A   Haze
1:54 PM 21.0 °F 11.4 °F 15.1 °F 78% 30.14 in 7.0 mi SE 8.1 mph - N/A   Clear
2:54 PM 21.9 °F 12.5 °F 16.0 °F 78% 30.12 in 7.0 mi SSE 8.1 mph - N/A   Clear
3:54 PM 25.0 °F 14.2 °F 19.0 °F 78% 30.08 in 8.0 mi SSE 11.5 mph - N/A   Clear
4:54 PM 26.1 °F 15.6 °F 19.9 °F 78% 30.05 in 10.0 mi SSE 11.5 mph - N/A   Clear
5:54 PM 30.0 °F 19.1 °F 21.9 °F 72% 30.05 in 10.0 mi South 15.0 mph - N/A   Clear
6:54 PM 30.0 °F 20.0 °F 23.0 °F 75% 30.04 in 10.0 mi South 12.7 mph - N/A   Clear
7:54 PM 30.9 °F 20.7 °F 23.0 °F 72% 30.01 in 10.0 mi South 13.8 mph - N/A   Clear
8:54 PM 33.1 °F 22.6 °F 23.0 °F 66% 30.00 in 10.0 mi SSW 16.1 mph - N/A   Clear
9:54 PM 33.1 °F 23.0 °F 23.0 °F 66% 30.02 in 10.0 mi WSW 15.0 mph - N/A   Clear
10:54 PM 30.9 °F 21.7 °F 23.0 °F 72% 30.02 in 10.0 mi West 11.5 mph - N/A   Clear
11:54 PM 28.0 °F 18.1 °F 21.9 °F 78% 30.03 in 10.0 mi West 11.5 mph - N/A   Clear